| time (UTC) | temp F | wind direction | speed knots | gust knots | rain 1hr in | rain 24hr in | rain mn in | humidity % | barometer mb |
| 20260901235242 | 71 | 275 | 9.6 | 19.1 | 0.00 | 0.00 | 0.00 | 39 | 1005.5 |
| 20260901234741 | 72 | 275 | 8.7 | 19.1 | 0.00 | 0.00 | 0.00 | 39 | 1005.5 |
| 20260901234241 | 73 | 253 | 7.8 | 16.5 | 0.00 | 0.00 | 0.00 | 37 | 1005.5 |
| 20260901233741 | 73 | 302 | 8.7 | 16.5 | 0.00 | 0.00 | 0.00 | 36 | 1005.5 |
| 20260901233240 | 75 | 250 | 7.8 | 14.8 | 0.00 | 0.00 | 0.00 | 35 | 1005.5 |
| 20260901232741 | 75 | 343 | 8.7 | 14.8 | 0.00 | 0.00 | 0.00 | 34 | 1005.5 |
| 20260901232235 | 75 | 301 | 9.6 | 19.1 | 0.00 | 0.00 | 0.00 | 34 | 1005.6 |
| 20260901231729 | 75 | 306 | 9.6 | 19.1 | 0.00 | 0.00 | 0.00 | 34 | 1005.6 |
| 20260901231223 | 76 | 286 | 9.6 | 16.5 | 0.00 | 0.00 | 0.00 | 34 | 1005.6 |
| 20260901230716 | 75 | 275 | 8.7 | 18.2 | 0.00 | 0.00 | 0.00 | 35 | 1005.6 |
| 20260901230214 | 76 | 307 | 8.7 | 18.2 | 0.00 | 0.00 | 0.00 | 34 | 1005.5 |
| 20260901225712 | 76 | 294 | 9.6 | 16.5 | 0.00 | 0.00 | 0.00 | 35 | 1005.5 |
| 20260901225214 | 75 | 254 | 8.7 | 16.5 | 0.00 | 0.00 | 0.00 | 35 | 1005.6 |
| 20260901224713 | 74 | 295 | 7.8 | 13.9 | 0.00 | 0.00 | 0.00 | 35 | 1005.7 |
| 20260901224213 | 74 | 251 | 7.8 | 13.9 | 0.00 | 0.00 | 0.00 | 35 | 1005.6 |
| 20260901223714 | 75 | 319 | 7.8 | 13.9 | 0.00 | 0.00 | 0.00 | 34 | 1005.6 |
| 20260901223458 | 75 | 295 | 7.8 | 13.9 | 0.00 | 0.00 | 0.00 | 33 | 1005.6 |
| 20260901222712 | 76 | 298 | 7.0 | 13.0 | 0.00 | 0.00 | 0.00 | 33 | 1005.5 |
| 20260901222451 | 76 | 261 | 7.8 | 14.8 | 0.00 | 0.00 | 0.00 | 32 | 1005.5 |
| 20260901221951 | 76 | 306 | 8.7 | 14.8 | 0.00 | 0.00 | 0.00 | 31 | 1005.5 |
| 20260901221458 | 77 | 304 | 7.0 | 13.9 | 0.00 | 0.00 | 0.00 | 30 | 1005.4 |
| 20260901220710 | 78 | 270 | 6.1 | 15.6 | 0.00 | 0.00 | 0.00 | 28 | 1005.4 |
| 20260901220447 | 79 | 311 | 6.1 | 15.6 | 0.00 | 0.00 | 0.00 | 27 | 1005.3 |
| 20260901215708 | 80 | 348 | 7.0 | 13.0 | 0.00 | 0.00 | 0.00 | 26 | 1005.3 |
| 20260901215210 | 80 | 306 | 7.8 | 13.0 | 0.00 | 0.00 | 0.00 | 26 | 1005.3 |
| 20260901214709 | 80 | 294 | 7.0 | 13.0 | 0.00 | 0.00 | 0.00 | 26 | 1005.2 |
| 20260901214218 | 80 | 288 | 5.2 | 12.2 | 0.00 | 0.00 | 0.00 | 26 | 1005.2 |
| 20260901213717 | 81 | 296 | 5.2 | 11.3 | 0.00 | 0.00 | 0.00 | 25 | 1005.3 |
| 20260901213220 | 82 | 344 | 5.2 | 11.3 | 0.00 | 0.00 | 0.00 | 24 | 1005.4 |
| 20260901212719 | 82 | 342 | 4.3 | 10.4 | 0.00 | 0.00 | 0.00 | 25 | 1005.4 |
| 20260901212211 | 82 | 321 | 4.3 | 10.4 | 0.00 | 0.00 | 0.00 | 25 | 1005.4 |
| 20260901211705 | 81 | 325 | 3.5 | 9.6 | 0.00 | 0.00 | 0.00 | 25 | 1005.5 |
| 20260901211158 | 80 | 355 | 4.3 | 9.6 | 0.00 | 0.00 | 0.00 | 26 | 1005.5 |
| 20260901210927 | 81 | 355 | 5.2 | 11.3 | 0.00 | 0.00 | 0.00 | 26 | 1005.6 |
| 20260901210148 | 80 | 329 | 3.5 | 11.3 | 0.00 | 0.00 | 0.00 | 26 | 1005.5 |
| 20260901205642 | 80 | 5 | 2.6 | 7.8 | 0.00 | 0.00 | 0.00 | 27 | 1005.7 |
| 20260901205136 | 80 | 0 | 3.5 | 11.3 | 0.00 | 0.00 | 0.00 | 27 | 1005.8 |
| 20260901204629 | 80 | 265 | 3.5 | 11.3 | 0.00 | 0.00 | 0.00 | 27 | 1005.8 |
| 20260901204135 | 80 | 340 | 3.5 | 10.4 | 0.00 | 0.00 | 0.00 | 27 | 1005.9 |
| 20260901204130 | 80 | 355 | 3.5 | 10.4 | 0.00 | 0.00 | 0.00 | 26 | 1005.8 |
| 20260901203343 | 80 | 355 | 3.5 | 9.6 | 0.00 | 0.00 | 0.00 | 27 | 1005.9 |
| 20260901202604 | 80 | 340 | 4.3 | 13.0 | 0.00 | 0.00 | 0.00 | 27 | 1006.0 |
| 20260901202059 | 80 | 313 | 3.5 | 13.0 | 0.00 | 0.00 | 0.00 | 27 | 1006.0 |
| 20260901201553 | 80 | 275 | 2.6 | 8.7 | 0.00 | 0.00 | 0.00 | 27 | 1006.0 |
| 20260901201046 | 79 | 338 | 2.6 | 7.8 | 0.00 | 0.00 | 0.00 | 29 | 1006.0 |
| 20260901200542 | 78 | 350 | 2.6 | 6.1 | 0.00 | 0.00 | 0.00 | 32 | 1006.1 |
| 20260901200035 | 78 | 242 | 1.7 | 6.1 | 0.00 | 0.00 | 0.00 | 32 | 1006.1 |
| 20260901195531 | 78 | 349 | 1.7 | 4.3 | 0.00 | 0.00 | 0.00 | 33 | 1006.2 |
| 20260901195020 | 78 | 59 | 1.7 | 4.3 | 0.00 | 0.00 | 0.00 | 32 | 1006.2 |
| 20260901194517 | 78 | 73 | 2.6 | 7.0 | 0.00 | 0.00 | 0.00 | 33 | 1006.4 |
| 20260901194016 | 78 | 343 | 2.6 | 7.0 | 0.00 | 0.00 | 0.00 | 33 | 1006.5 |
| 20260901193506 | 78 | 348 | 1.7 | 5.2 | 0.00 | 0.00 | 0.00 | 33 | 1006.6 |
| 20260901192959 | 77 | 32 | 1.7 | 5.2 | 0.00 | 0.00 | 0.00 | 34 | 1006.7 |
| 20260901192453 | 77 | 202 | 1.7 | 5.2 | 0.00 | 0.00 | 0.00 | 33 | 1006.8 |
| 20260901191947 | 77 | 302 | 2.6 | 7.8 | 0.00 | 0.00 | 0.00 | 34 | 1006.8 |
| 20260901191440 | 77 | 338 | 2.6 | 7.8 | 0.00 | 0.00 | 0.00 | 33 | 1006.9 |
| 20260901190937 | 77 | 355 | 1.7 | 7.8 | 0.00 | 0.00 | 0.00 | 34 | 1007.0 |
| 20260901190429 | 77 | 19 | 0.9 | 6.1 | 0.00 | 0.00 | 0.00 | 33 | 1007.0 |
| 20260901185926 | 76 | 43 | 0.9 | 3.5 | 0.00 | 0.00 | 0.00 | 33 | 1007.1 |
| 20260901185419 | 76 | 260 | 0.9 | 2.6 | 0.00 | 0.00 | 0.00 | 33 | 1007.2 |
| 20260901184912 | 76 | 270 | 0.9 | 3.5 | 0.00 | 0.00 | 0.00 | 34 | 1007.2 |
| 20260901184404 | 75 | 294 | 1.7 | 3.5 | 0.00 | 0.00 | 0.00 | 35 | 1007.3 |
| 20260901183901 | 75 | 13 | 1.7 | 3.5 | 0.00 | 0.00 | 0.00 | 36 | 1007.3 |
| 20260901183356 | 74 | 30 | 1.7 | 6.1 | 0.00 | 0.00 | 0.00 | 37 | 1007.2 |
| 20260901182847 | 74 | 323 | 1.7 | 6.1 | 0.00 | 0.00 | 0.00 | 36 | 1007.4 |
| 20260901182341 | 74 | 317 | 1.7 | 5.2 | 0.00 | 0.00 | 0.00 | 37 | 1007.4 |
| 20260901182110 | 74 | 62 | 2.6 | 5.2 | 0.00 | 0.00 | 0.00 | 37 | 1007.3 |
| 20260901181330 | 74 | 34 | 0.9 | 5.2 | 0.00 | 0.00 | 0.00 | 38 | 1007.3 |
| 20260901181101 | 74 | 18 | 0.9 | 4.3 | 0.00 | 0.00 | 0.00 | 38 | 1007.4 |
| 20260901180326 | 73 | 355 | 0.9 | 4.3 | 0.00 | 0.00 | 0.00 | 39 | 1007.4 |
| 20260901175827 | 73 | 349 | 0.9 | 4.3 | 0.00 | 0.00 | 0.00 | 39 | 1007.3 |
| 20260901175326 | 72 | 269 | 0.9 | 2.6 | 0.00 | 0.00 | 0.00 | 40 | 1007.4 |
| 20260901174825 | 72 | 300 | 1.7 | 4.3 | 0.00 | 0.00 | 0.00 | 40 | 1007.5 |
| 20260901174554 | 72 | 301 | 1.7 | 4.3 | 0.00 | 0.00 | 0.00 | 40 | 1007.5 |
| 20260901173822 | 72 | 27 | 1.7 | 3.5 | 0.00 | 0.00 | 0.00 | 41 | 1007.5 |
| 20260901173324 | 71 | 355 | 1.7 | 7.8 | 0.00 | 0.00 | 0.00 | 41 | 1007.5 |
| 20260901172826 | 71 | 350 | 0.9 | 7.8 | 0.00 | 0.00 | 0.00 | 41 | 1007.4 |
| 20260901172329 | 70 | 293 | 0.9 | 5.2 | 0.00 | 0.00 | 0.00 | 42 | 1007.4 |
| 20260901171832 | 70 | 275 | 0.9 | 5.2 | 0.00 | 0.00 | 0.00 | 42 | 1007.4 |
| 20260901171322 | 70 | 277 | 0.9 | 3.5 | 0.00 | 0.00 | 0.00 | 42 | 1007.4 |
| 20260901170822 | 70 | 135 | 0.9 | 3.5 | 0.00 | 0.00 | 0.00 | 42 | 1007.3 |
| 20260901170322 | 70 | 111 | 0.9 | 2.6 | 0.00 | 0.00 | 0.00 | 42 | 1007.3 |
| 20260901165822 | 69 | 112 | 0.9 | 4.3 | 0.00 | 0.00 | 0.00 | 43 | 1007.3 |
| 20260901165602 | 68 | 124 | 0.9 | 4.3 | 0.00 | 0.00 | 0.00 | 43 | 1007.3 |
| 20260901164819 | 68 | 156 | 0.9 | 4.3 | 0.00 | 0.00 | 0.00 | 44 | 1007.3 |
| 20260901164318 | 67 | 140 | 0.9 | 5.2 | 0.00 | 0.00 | 0.00 | 44 | 1007.4 |
| 20260901163818 | 67 | 126 | 0.9 | 5.2 | 0.00 | 0.00 | 0.00 | 44 | 1007.5 |
| 20260901163318 | 66 | 130 | 0.9 | 5.2 | 0.00 | 0.00 | 0.00 | 45 | 1007.4 |
| 20260901162817 | 66 | 148 | 0.9 | 5.2 | 0.00 | 0.00 | 0.00 | 46 | 1007.4 |
| 20260901162320 | 65 | 140 | 0.9 | 5.2 | 0.00 | 0.00 | 0.00 | 46 | 1007.4 |
| 20260901161818 | 65 | 119 | 0.9 | 5.2 | 0.00 | 0.00 | 0.00 | 47 | 1007.4 |
| 20260901161318 | 64 | 123 | 0.9 | 5.2 | 0.00 | 0.00 | 0.00 | 47 | 1007.5 |
| 20260901161058 | 63 | 112 | 0.9 | 5.2 | 0.00 | 0.00 | 0.00 | 49 | 1007.5 |
| 20260901160317 | 62 | 142 | 0.9 | 2.6 | 0.00 | 0.00 | 0.00 | 50 | 1007.7 |
| 20260901155815 | 62 | 143 | 0.9 | 3.5 | 0.00 | 0.00 | 0.00 | 50 | 1007.7 |
| 20260901155317 | 61 | 142 | 0.9 | 5.2 | 0.00 | 0.00 | 0.00 | 51 | 1007.8 |
| 20260901154813 | 60 | 140 | 0.9 | 5.2 | 0.00 | 0.00 | 0.00 | 51 | 1007.8 |
| 20260901154315 | 60 | 144 | 0.9 | 4.3 | 0.00 | 0.00 | 0.00 | 52 | 1007.8 |
| 20260901153817 | 59 | 142 | 1.7 | 3.5 | 0.00 | 0.00 | 0.00 | 52 | 1007.8 |
| 20260901153314 | 58 | 138 | 1.7 | 5.2 | 0.00 | 0.00 | 0.00 | 53 | 1007.9 |
| 20260901152814 | 58 | 148 | 0.9 | 5.2 | 0.00 | 0.00 | 0.00 | 54 | 1007.9 |
| 20260901152313 | 57 | 150 | 0.9 | 5.2 | 0.00 | 0.00 | 0.00 | 55 | 1008.0 |
| 20260901151816 | 57 | 162 | 1.7 | 5.2 | 0.00 | 0.00 | 0.00 | 56 | 1008.0 |
| 20260901151315 | 56 | 150 | 1.7 | 6.1 | 0.00 | 0.00 | 0.00 | 56 | 1008.0 |
| 20260901150810 | 56 | 150 | 2.6 | 7.0 | 0.00 | 0.00 | 0.00 | 56 | 1008.0 |
| 20260901150302 | 56 | 153 | 2.6 | 7.0 | 0.00 | 0.00 | 0.00 | 57 | 1007.9 |
| 20260901145758 | 55 | 144 | 3.5 | 7.0 | 0.00 | 0.00 | 0.00 | 57 | 1007.9 |
| 20260901145251 | 55 | 145 | 3.5 | 7.0 | 0.00 | 0.00 | 0.00 | 58 | 1007.8 |
| 20260901145010 | 54 | 144 | 3.5 | 6.1 | 0.00 | 0.00 | 0.00 | 59 | 1007.7 |
| 20260901144239 | 53 | 144 | 2.6 | 7.0 | 0.00 | 0.00 | 0.00 | 60 | 1007.4 |
| 20260901143732 | 53 | 155 | 2.6 | 7.0 | 0.00 | 0.00 | 0.00 | 61 | 1007.4 |
| 20260901143226 | 53 | 141 | 3.5 | 6.1 | 0.00 | 0.00 | 0.00 | 61 | 1007.3 |
| 20260901142721 | 52 | 137 | 3.5 | 6.1 | 0.00 | 0.00 | 0.00 | 62 | 1007.3 |
| 20260901142215 | 52 | 138 | 2.6 | 5.2 | 0.00 | 0.00 | 0.00 | 62 | 1007.3 |
| 20260901141709 | 52 | 143 | 2.6 | 5.2 | 0.00 | 0.00 | 0.00 | 62 | 1007.3 |
| 20260901141202 | 52 | 140 | 0.9 | 3.5 | 0.00 | 0.00 | 0.00 | 62 | 1007.2 |
| 20260901140659 | 52 | 144 | 0.0 | 1.7 | 0.00 | 0.00 | 0.00 | 62 | 1007.1 |
| 20260901140151 | 53 | 144 | 0.9 | 3.5 | 0.00 | 0.00 | 0.00 | 62 | 1007.0 |
| 20260901135644 | 53 | 144 | 1.7 | 3.5 | 0.00 | 0.00 | 0.00 | 62 | 1007.1 |
| 20260901135145 | 53 | 148 | 1.7 | 3.5 | 0.00 | 0.00 | 0.00 | 62 | 1007.0 |
| 20260901134632 | 53 | 144 | 1.7 | 4.3 | 0.00 | 0.00 | 0.00 | 61 | 1006.9 |
| 20260901134129 | 53 | 145 | 1.7 | 4.3 | 0.00 | 0.00 | 0.00 | 61 | 1007.0 |
| 20260901133627 | 53 | 145 | 0.9 | 3.5 | 0.00 | 0.00 | 0.00 | 61 | 1006.9 |
| 20260901133349 | 53 | 146 | 0.9 | 2.6 | 0.00 | 0.00 | 0.00 | 61 | 1006.9 |
| 20260901132627 | 53 | 150 | 0.9 | 1.7 | 0.00 | 0.00 | 0.00 | 61 | 1007.0 |
| 20260901132128 | 53 | 150 | 0.0 | 1.7 | 0.00 | 0.00 | 0.00 | 61 | 1007.0 |
| 20260901131627 | 53 | 150 | 0.0 | 1.7 | 0.00 | 0.00 | 0.00 | 61 | 1006.9 |
| 20260901131125 | 54 | 150 | 0.0 | 1.7 | 0.00 | 0.00 | 0.00 | 61 | 1007.0 |
| 20260901130623 | 54 | 151 | 0.0 | 1.7 | 0.00 | 0.00 | 0.00 | 60 | 1006.9 |
| 20260901130122 | 54 | 150 | 0.0 | 1.7 | 0.00 | 0.00 | 0.00 | 60 | 1007.0 |
| 20260901125620 | 54 | 150 | 0.9 | 4.3 | 0.00 | 0.00 | 0.00 | 60 | 1006.9 |
| 20260901125119 | 55 | 150 | 0.9 | 4.3 | 0.00 | 0.00 | 0.00 | 59 | 1006.8 |
| 20260901124633 | 55 | 150 | 1.7 | 4.3 | 0.00 | 0.00 | 0.00 | 60 | 1006.8 |
| 20260901124120 | 55 | 153 | 1.7 | 4.3 | 0.00 | 0.00 | 0.00 | 60 | 1006.8 |
| 20260901123619 | 55 | 163 | 1.7 | 3.5 | 0.00 | 0.00 | 0.00 | 59 | 1006.8 |
| 20260901123348 | 55 | 171 | 0.9 | 3.5 | 0.00 | 0.00 | 0.00 | 59 | 1006.9 |
| 20260901122619 | 55 | 226 | 0.9 | 2.6 | 0.00 | 0.00 | 0.00 | 58 | 1006.9 |
| 20260901122120 | 55 | 234 | 0.0 | 2.6 | 0.00 | 0.00 | 0.00 | 57 | 1006.8 |
| 20260901121847 | 56 | 259 | 0.0 | 0.9 | 0.00 | 0.00 | 0.00 | 58 | 1006.9 |
| 20260901121113 | 56 | 259 | 0.0 | 0.9 | 0.00 | 0.00 | 0.00 | 57 | 1006.9 |
| 20260901120610 | 56 | 259 | 0.0 | 0.9 | 0.00 | 0.00 | 0.00 | 58 | 1006.9 |
| 20260901115555 | 56 | 259 | 0.0 | 0.0 | 0.00 | 0.00 | 0.00 | 57 | 1006.9 |
| 20260901115048 | 56 | 259 | 0.0 | 0.0 | 0.00 | 0.00 | 0.00 | 57 | 1007.0 |
| 20260901114542 | 56 | 259 | 0.0 | 0.0 | 0.00 | 0.00 | 0.00 | 56 | 1007.0 |
| 20260901114037 | 57 | 259 | 0.0 | 0.0 | 0.00 | 0.00 | 0.00 | 56 | 1007.0 |
| 20260901113537 | 57 | 259 | 0.0 | 0.0 | 0.00 | 0.00 | 0.00 | 56 | 1007.0 |
| 20260901113037 | 57 | 259 | 0.0 | 0.0 | 0.00 | 0.00 | 0.00 | 56 | 1006.9 |
| 20260901112537 | 57 | 259 | 0.0 | 0.0 | 0.00 | 0.00 | 0.00 | 56 | 1007.0 |
| 20260901112306 | 57 | 259 | 0.0 | 0.0 | 0.00 | 0.00 | 0.00 | 56 | 1006.8 |
| 20260901111535 | 57 | 259 | 0.0 | 0.0 | 0.00 | 0.00 | 0.00 | 54 | 1006.8 |
| 20260901111041 | 57 | 259 | 0.0 | 0.0 | 0.00 | 0.00 | 0.00 | 55 | 1006.9 |
| 20260901110533 | 57 | 259 | 0.0 | 0.0 | 0.00 | 0.00 | 0.00 | 54 | 1006.9 |
| 20260901110033 | 57 | 259 | 0.0 | 0.0 | 0.00 | 0.00 | 0.00 | 53 | 1006.9 |
| 20260901105533 | 58 | 259 | 0.0 | 0.0 | 0.00 | 0.00 | 0.00 | 52 | 1006.9 |
| 20260901105034 | 58 | 259 | 0.0 | 0.0 | 0.00 | 0.00 | 0.00 | 51 | 1006.9 |
| 20260901104533 | 59 | 259 | 0.0 | 0.0 | 0.00 | 0.00 | 0.00 | 51 | 1007.0 |
| 20260901104033 | 59 | 259 | 0.0 | 0.0 | 0.00 | 0.00 | 0.00 | 51 | 1007.0 |
| 20260901103532 | 60 | 259 | 0.0 | 0.9 | 0.00 | 0.00 | 0.00 | 51 | 1007.0 |
| 20260901103033 | 60 | 259 | 0.0 | 0.9 | 0.00 | 0.00 | 0.00 | 51 | 1007.0 |
| 20260901102532 | 60 | 259 | 0.0 | 0.0 | 0.00 | 0.00 | 0.00 | 50 | 1007.1 |
| 20260901102033 | 60 | 259 | 0.0 | 0.9 | 0.00 | 0.00 | 0.00 | 50 | 1007.0 |
| 20260901101534 | 60 | 259 | 0.0 | 0.9 | 0.00 | 0.00 | 0.00 | 49 | 1007.0 |
| 20260901101032 | 60 | 259 | 0.0 | 0.0 | 0.00 | 0.00 | 0.00 | 49 | 1007.0 |
| 20260901100532 | 60 | 259 | 0.0 | 0.9 | 0.00 | 0.00 | 0.00 | 49 | 1007.0 |
| 20260901100032 | 61 | 259 | 0.0 | 2.6 | 0.00 | 0.00 | 0.00 | 49 | 1007.1 |
| 20260901095533 | 61 | 259 | 0.9 | 2.6 | 0.00 | 0.00 | 0.00 | 48 | 1007.1 |
| 20260901095031 | 61 | 259 | 0.9 | 2.6 | 0.00 | 0.00 | 0.00 | 48 | 1007.1 |
| 20260901094755 | 60 | 263 | 0.9 | 2.6 | 0.00 | 0.00 | 0.00 | 48 | 1007.2 |
| 20260901094029 | 60 | 263 | 0.9 | 2.6 | 0.00 | 0.00 | 0.00 | 48 | 1007.2 |
| 20260901093526 | 60 | 266 | 0.9 | 2.6 | 0.00 | 0.00 | 0.00 | 47 | 1007.1 |
| 20260901093026 | 60 | 275 | 0.0 | 1.7 | 0.00 | 0.00 | 0.00 | 47 | 1007.1 |
| 20260901092525 | 61 | 277 | 0.0 | 1.7 | 0.00 | 0.00 | 0.00 | 47 | 1007.2 |
| 20260901092023 | 60 | 278 | 0.0 | 1.7 | 0.00 | 0.00 | 0.00 | 47 | 1007.2 |
| 20260901091523 | 61 | 281 | 0.0 | 1.7 | 0.00 | 0.00 | 0.00 | 47 | 1007.3 |
| 20260901091023 | 61 | 281 | 0.0 | 1.7 | 0.00 | 0.00 | 0.00 | 47 | 1007.2 |
| 20260901090523 | 61 | 281 | 0.0 | 1.7 | 0.00 | 0.00 | 0.00 | 47 | 1007.2 |
| 20260901090016 | 61 | 281 | 0.0 | 2.6 | 0.00 | 0.00 | 0.00 | 47 | 1007.4 |
| 20260901085517 | 61 | 281 | 0.0 | 2.6 | 0.00 | 0.00 | 0.00 | 46 | 1007.3 |
| 20260901085240 | 61 | 284 | 0.0 | 1.7 | 0.00 | 0.00 | 0.00 | 46 | 1007.3 |
| 20260901084738 | 61 | 284 | 0.0 | 2.6 | 0.00 | 0.00 | 0.00 | 45 | 1007.2 |
| 20260901084018 | 61 | 284 | 0.0 | 2.6 | 0.00 | 0.00 | 0.00 | 45 | 1007.3 |
| 20260901083514 | 61 | 285 | 0.0 | 2.6 | 0.00 | 0.00 | 0.00 | 44 | 1007.4 |
| 20260901083243 | 61 | 298 | 0.0 | 1.7 | 0.00 | 0.00 | 0.00 | 45 | 1007.4 |
| 20260901082509 | 61 | 298 | 0.0 | 1.7 | 0.00 | 0.00 | 0.00 | 45 | 1007.3 |
| 20260901082002 | 61 | 298 | 0.0 | 1.7 | 0.00 | 0.00 | 0.00 | 44 | 1007.3 |
| 20260901081456 | 61 | 298 | 0.0 | 1.7 | 0.00 | 0.00 | 0.00 | 44 | 1007.4 |
| 20260901080949 | 61 | 298 | 0.0 | 1.7 | 0.00 | 0.00 | 0.00 | 43 | 1007.3 |
| 20260901080444 | 61 | 298 | 0.9 | 1.7 | 0.00 | 0.00 | 0.00 | 42 | 1007.3 |
| 20260901075938 | 61 | 299 | 0.9 | 1.7 | 0.00 | 0.00 | 0.00 | 41 | 1007.3 |
| 20260901075433 | 61 | 301 | 0.9 | 1.7 | 0.00 | 0.00 | 0.00 | 41 | 1007.3 |
| 20260901074926 | 61 | 301 | 0.9 | 1.7 | 0.00 | 0.00 | 0.00 | 40 | 1007.3 |
| 20260901074912 | 61 | 301 | 0.9 | 1.7 | 0.00 | 0.00 | 0.00 | 39 | 1007.3 |
| 20260901073915 | 61 | 301 | 0.0 | 0.9 | 0.00 | 0.00 | 0.00 | 39 | 1007.4 |
| 20260901073636 | 61 | 301 | 0.0 | 0.9 | 0.00 | 0.00 | 0.00 | 39 | 1007.4 |
| 20260901072902 | 61 | 301 | 0.0 | 1.7 | 0.00 | 0.00 | 0.00 | 39 | 1007.4 |
| 20260901072356 | 61 | 301 | 0.0 | 1.7 | 0.00 | 0.00 | 0.00 | 39 | 1007.5 |
| 20260901071850 | 62 | 302 | 0.0 | 0.9 | 0.00 | 0.00 | 0.00 | 38 | 1007.5 |
| 20260901071344 | 62 | 302 | 0.0 | 0.9 | 0.00 | 0.00 | 0.00 | 38 | 1007.4 |
| 20260901070839 | 62 | 302 | 0.0 | 1.7 | 0.00 | 0.00 | 0.00 | 38 | 1007.4 |
| 20260901070550 | 63 | 302 | 0.9 | 1.7 | 0.00 | 0.00 | 0.00 | 37 | 1007.4 |
| 20260901065827 | 64 | 302 | 0.9 | 2.6 | 0.00 | 0.00 | 0.00 | 36 | 1007.3 |
| 20260901065816 | 64 | 302 | 0.9 | 3.5 | 0.00 | 0.00 | 0.00 | 36 | 1007.3 |
| 20260901064816 | 65 | 300 | 1.7 | 3.5 | 0.00 | 0.00 | 0.00 | 36 | 1007.3 |
| 20260901064310 | 65 | 302 | 1.7 | 2.6 | 0.00 | 0.00 | 0.00 | 35 | 1007.3 |
| 20260901063804 | 65 | 297 | 0.9 | 2.6 | 0.00 | 0.00 | 0.00 | 35 | 1007.5 |
| 20260901063257 | 65 | 296 | 0.9 | 3.5 | 0.00 | 0.00 | 0.00 | 35 | 1007.5 |
| 20260901062752 | 65 | 296 | 1.7 | 2.6 | 0.00 | 0.00 | 0.00 | 35 | 1007.5 |
| 20260901062246 | 65 | 296 | 0.9 | 3.5 | 0.00 | 0.00 | 0.00 | 35 | 1007.7 |
| 20260901061740 | 65 | 285 | 0.9 | 3.5 | 0.00 | 0.00 | 0.00 | 35 | 1007.7 |
| 20260901061235 | 65 | 284 | 0.9 | 3.5 | 0.00 | 0.00 | 0.00 | 35 | 1007.8 |
| 20260901060727 | 65 | 282 | 0.9 | 3.5 | 0.00 | 0.00 | 0.00 | 35 | 1007.8 |
| 20260901060222 | 66 | 285 | 1.7 | 4.3 | 0.00 | 0.00 | 0.00 | 35 | 1007.7 |
| 20260901055716 | 66 | 288 | 1.7 | 4.3 | 0.00 | 0.00 | 0.00 | 35 | 1007.7 |
| 20260901055210 | 66 | 297 | 1.7 | 3.5 | 0.00 | 0.00 | 0.00 | 35 | 1007.7 |
| 20260901054704 | 66 | 298 | 1.7 | 3.5 | 0.00 | 0.00 | 0.00 | 34 | 1007.8 |
| 20260901054430 | 66 | 298 | 1.7 | 4.3 | 0.00 | 0.00 | 0.00 | 34 | 1007.7 |
| 20260901053930 | 66 | 288 | 1.7 | 4.3 | 0.00 | 0.00 | 0.00 | 34 | 1007.8 |
| 20260901053202 | 66 | 298 | 1.7 | 3.5 | 0.00 | 0.00 | 0.00 | 34 | 1007.7 |
| 20260901052702 | 67 | 296 | 1.7 | 3.5 | 0.00 | 0.00 | 0.00 | 34 | 1007.8 |
| 20260901052205 | 67 | 298 | 1.7 | 3.5 | 0.00 | 0.00 | 0.00 | 34 | 1007.8 |
| 20260901052140 | 67 | 295 | 1.7 | 3.5 | 0.00 | 0.00 | 0.00 | 34 | 1007.8 |
| 20260901050700 | 69 | 319 | 0.9 | 5.2 | 0.00 | 0.00 | 0.00 | 34 | 1007.7 |
| 20260901050201 | 69 | 329 | 1.7 | 5.2 | 0.00 | 0.00 | 0.00 | 34 | 1007.8 |
| 20260901045701 | 69 | 355 | 1.7 | 5.2 | 0.00 | 0.00 | 0.00 | 33 | 1007.8 |
| 20260901045200 | 70 | 327 | 2.6 | 7.8 | 0.00 | 0.00 | 0.00 | 33 | 1007.7 |
| 20260901044909 | 70 | 355 | 2.6 | 7.8 | 0.00 | 0.00 | 0.00 | 33 | 1007.7 |
| 20260901043701 | 70 | 313 | 2.6 | 7.0 | 0.00 | 0.00 | 0.00 | 32 | 1007.7 |
| 20260901043423 | 71 | 350 | 1.7 | 5.2 | 0.00 | 0.00 | 0.00 | 32 | 1007.7 |
| 20260901042659 | 71 | 343 | 1.7 | 5.2 | 0.00 | 0.00 | 0.00 | 32 | 1007.7 |
| 20260901042203 | 71 | 345 | 1.7 | 5.2 | 0.00 | 0.00 | 0.00 | 32 | 1007.5 |
| 20260901041659 | 72 | 0 | 2.6 | 9.6 | 0.00 | 0.00 | 0.00 | 31 | 1007.5 |
| 20260901041159 | 72 | 355 | 3.5 | 9.6 | 0.00 | 0.00 | 0.00 | 31 | 1007.4 |
| 20260901040700 | 72 | 346 | 3.5 | 9.6 | 0.00 | 0.00 | 0.00 | 31 | 1007.2 |
| 20260901040159 | 72 | 317 | 3.5 | 8.7 | 0.00 | 0.00 | 0.00 | 31 | 1007.2 |
| 20260901040150 | 72 | 355 | 3.5 | 8.7 | 0.00 | 0.00 | 0.00 | 31 | 1007.1 |
| 20260901035158 | 73 | 343 | 4.3 | 10.4 | 0.00 | 0.00 | 0.00 | 30 | 1007.0 |
| 20260901034656 | 73 | 347 | 4.3 | 10.4 | 0.00 | 0.00 | 0.00 | 31 | 1007.0 |
| 20260901034427 | 73 | 338 | 3.5 | 9.6 | 0.00 | 0.00 | 0.00 | 30 | 1007.0 |
| 20260901033655 | 73 | 344 | 3.5 | 8.7 | 0.00 | 0.00 | 0.00 | 30 | 1006.9 |
| 20260901033153 | 73 | 355 | 3.5 | 8.7 | 0.00 | 0.00 | 0.00 | 30 | 1006.9 |
| 20260901032654 | 74 | 53 | 2.6 | 8.7 | 0.00 | 0.00 | 0.00 | 30 | 1006.8 |
| 20260901032154 | 74 | 341 | 3.5 | 9.6 | 0.00 | 0.00 | 0.00 | 29 | 1006.7 |
| 20260901031656 | 74 | 0 | 3.5 | 9.6 | 0.00 | 0.00 | 0.00 | 29 | 1006.7 |
| 20260901031151 | 74 | 355 | 3.5 | 9.6 | 0.00 | 0.00 | 0.00 | 29 | 1006.6 |
| 20260901030651 | 75 | 351 | 3.5 | 9.6 | 0.00 | 0.00 | 0.00 | 29 | 1006.6 |
| 20260901030151 | 75 | 336 | 4.3 | 10.4 | 0.00 | 0.00 | 0.00 | 29 | 1006.6 |
| 20260901025652 | 75 | 328 | 3.5 | 10.4 | 0.00 | 0.00 | 0.00 | 29 | 1006.5 |
| 20260901025152 | 76 | 331 | 3.5 | 10.4 | 0.00 | 0.00 | 0.00 | 28 | 1006.6 |
| 20260901025142 | 76 | 355 | 3.5 | 10.4 | 0.00 | 0.00 | 0.00 | 28 | 1006.4 |
| 20260901024145 | 76 | 23 | 3.5 | 9.6 | 0.00 | 0.00 | 0.00 | 27 | 1006.2 |
| 20260901023638 | 77 | 337 | 3.5 | 12.2 | 0.00 | 0.00 | 0.00 | 27 | 1006.2 |
| 20260901023133 | 78 | 355 | 3.5 | 12.2 | 0.00 | 0.00 | 0.00 | 26 | 1006.1 |
| 20260901022855 | 78 | 350 | 3.5 | 12.2 | 0.00 | 0.00 | 0.00 | 26 | 1006.0 |
| 20260901022124 | 79 | 331 | 4.3 | 12.2 | 0.00 | 0.00 | 0.00 | 26 | 1005.9 |
| 20260901021615 | 79 | 342 | 4.3 | 12.2 | 0.00 | 0.00 | 0.00 | 25 | 1006.0 |
| 20260901021109 | 80 | 0 | 5.2 | 12.2 | 0.00 | 0.00 | 0.00 | 25 | 1005.9 |
| 20260901021058 | 80 | 12 | 5.2 | 12.2 | 0.00 | 0.00 | 0.00 | 24 | 1005.8 |
| 20260901020330 | 80 | 19 | 6.1 | 13.0 | 0.00 | 0.00 | 0.00 | 24 | 1005.8 |
| 20260901015815 | 81 | 0 | 6.1 | 13.0 | 0.00 | 0.00 | 0.00 | 23 | 1005.8 |
| 20260901015045 | 81 | 337 | 5.2 | 10.4 | 0.00 | 0.00 | 0.00 | 23 | 1005.8 |
| 20260901014812 | 82 | 0 | 5.2 | 12.2 | 0.00 | 0.00 | 0.00 | 23 | 1005.8 |
| 20260901014033 | 82 | 30 | 5.2 | 11.3 | 0.00 | 0.00 | 0.00 | 22 | 1005.7 |
| 20260901013532 | 83 | 5 | 4.3 | 12.2 | 0.00 | 0.00 | 0.00 | 22 | 1005.6 |
| 20260901013022 | 83 | 46 | 3.5 | 13.0 | 0.00 | 0.00 | 0.00 | 21 | 1005.6 |
| 20260901012514 | 84 | 40 | 4.3 | 13.0 | 0.00 | 0.00 | 0.00 | 21 | 1005.7 |
| 20260901012009 | 84 | 335 | 4.3 | 11.3 | 0.00 | 0.00 | 0.00 | 20 | 1005.7 |
| 20260901011503 | 85 | 50 | 3.5 | 8.7 | 0.00 | 0.00 | 0.00 | 20 | 1005.8 |
| 20260901010957 | 85 | 338 | 3.5 | 11.3 | 0.00 | 0.00 | 0.00 | 20 | 1005.6 |
| 20260901010451 | 85 | 34 | 3.5 | 11.3 | 0.00 | 0.00 | 0.00 | 20 | 1005.6 |
| 20260901005945 | 85 | 310 | 5.2 | 12.2 | 0.00 | 0.00 | 0.00 | 20 | 1005.7 |
| 20260901005439 | 84 | 355 | 6.1 | 12.2 | 0.00 | 0.00 | 0.00 | 19 | 1005.7 |
| 20260901004933 | 85 | 0 | 6.1 | 12.2 | 0.00 | 0.00 | 0.00 | 19 | 1005.8 |
| 20260901004427 | 85 | 5 | 5.2 | 12.2 | 0.00 | 0.00 | 0.00 | 19 | 1005.8 |
| 20260901003923 | 85 | 5 | 5.2 | 15.6 | 0.00 | 0.00 | 0.00 | 20 | 1006.0 |
| 20260901003415 | 85 | 345 | 5.2 | 15.6 | 0.00 | 0.00 | 0.00 | 19 | 1006.0 |
| 20260901003135 | 85 | 319 | 6.1 | 13.0 | 0.00 | 0.00 | 0.00 | 19 | 1005.9 |
| 20260901002404 | 85 | 355 | 6.1 | 12.2 | 0.00 | 0.00 | 0.00 | 20 | 1005.9 |
| 20260901001904 | 85 | 17 | 5.2 | 11.3 | 0.00 | 0.00 | 0.00 | 19 | 1005.8 |
| 20260901001401 | 85 | 347 | 6.1 | 13.0 | 0.00 | 0.00 | 0.00 | 20 | 1005.9 |
| 20260901000859 | 85 | 346 | 6.1 | 13.0 | 0.00 | 0.00 | 0.00 | 20 | 1005.9 |
| 20260901000624 | 84 | 305 | 5.2 | 12.2 | 0.00 | 0.00 | 0.00 | 20 | 1006.0 |
| 20260831235857 | 84 | 324 | 6.1 | 12.2 | 0.00 | 0.00 | 0.00 | 20 | 1005.9 |